Tracking 20242 objects as of 24-Jan-2020
HD Live streaming from Space Station
objects crossing your sky now

FENGYUN 1C DEB

Track FENGYUN 1C DEB now!
10-day predictions


NORAD ID: 31292
Int'l Code: 1999-025BPA
Perigee: 783.5 km
Apogee: 864.7 km
Inclination: 99.1 °
Period: 101.2 minutes
Semi major axis: 7195 km
RCS: 0.0053 m2 (small)
Launch date: May 10, 1999
Source: People's Republic of China (PRC)
Launch site: Taiyaun Space Center, China (TSC)

Note: This is SATELLITE DEBRIS
aabbcc
Your satellite tracking list
Your tracking list is empty




NASA's NSSDC Master Catalog

Two Line Element Set (TLE):
1 31292U 99025BPA 20022.06834539  .00001156  00000-0  53059-3 0  9994
2 31292  99.0838 102.0462 0056392 146.2218 214.2572 14.22484826661399
Source of the keplerian elements: AFSPC